TESLIN, YK current weather conditions

sailwx.info

Wind from 300 at 11 knots gusting 19

Air temperature 2.0° C
Visibility: greater than 4.3 NM
Dewpoint -1.0° C
Present weather: Showers in the vicinity.

Last reported at 2014-Sep-30 21:32 UTC.
Time now 2014-Oct-01 00:03 UTC

Location: N 60°10' W 132°45'.
View on Google Maps.

See reports from other nearby stations

  
Tides and Currents Weather Stations Pressure Air Temp Water Temp Dewpoint Dewpoint Depression Visibility Wind Speed Wind Dir Waves Ship Positions
date/time (UTC)wind fromknots sea level pressurealtimeterstation pressurevisibilityair tempwater tempwave heightnotes
2014-Sep-30 21:32 300 11 gusting 19 4.3 2.0 Showers in the vicinity.
2014-Sep-30 21:06 300 13 gusting 23 3.5 2.0 Light snow.
2014-Sep-30 21:00 300 13 gusting 20 3.5 2.0 Showers in the vicinity.
2014-Sep-30 20:10 310 12 gusting 17 3.5 2.0 Mist.
2014-Sep-30 20:00 310 11 gusting 18 2.6 2.0 Light rain snow.
2014-Sep-30 19:50 310 10 gusting 16 2.6 2.0 Light rain snow.
2014-Sep-30 19:00 280 5 7.8 4.0 Light rain.
2014-Sep-30 18:34 7.8 3.0 Light rain.
2014-Sep-30 18:11 280 9 gusting 20 4.3 3.0 Light rain. Mist.
2014-Sep-30 18:00 270 15 gusting 42 2.6 3.0 Rain. Mist.
2014-Sep-30 17:51 270 24 gusting 42 2.6 6.0 Rain. Mist.
2014-Sep-30 17:00 100 5 8.7 6.0 Showers in the vicinity.
2014-Sep-30 16:00 070 5 13.0 5.0
2014-Sep-30 15:00 080 4 7.0 4.0
2014-Sep-30 14:00 090 4 8.7 5.0
2014-Sep-30 13:00 070 5 8.7 4.0
2014-Sep-30 01:00 270 6 7.0 7.0 Light rain.
2014-Sep-30 00:46 280 10 7.0 7.0 Light rain.
2014-Sep-30 00:00 260 7 8.7 8.0
2014-Sep-29 23:00 290 10 8.7 8.0
2014-Sep-29 22:00 270 8 7.0 7.0 Showers in the vicinity.
2014-Sep-29 21:37 280 10 7.0 7.0 Showers in the vicinity.
2014-Sep-29 21:09 290 8 7.0 7.0 Light rain showers.
2014-Sep-29 21:00 290 6 7.0 7.0 Showers in the vicinity.
2014-Sep-29 20:00 280 10 7.0 7.0
2014-Sep-29 19:00 270 6 7.0 7.0
2014-Sep-29 18:00 280 8 6.1 6.0
2014-Sep-29 17:00 290 7 7.0 5.0
2014-Sep-29 16:00 290 4 7.0 5.0
2014-Sep-29 15:06 290 4 7.0 5.0
2014-Sep-29 15:00 300 5 7.0 5.0 Light rain showers.
2014-Sep-29 14:00 250 2 8.7 5.0 Light rain showers.
2014-Sep-29 13:00 8.7 4.0 Light rain showers.
2014-Sep-29 01:00 220 3 13.010.0
2014-Sep-29 00:00 160 5 8.710.0 Showers in the vicinity.